Regional Weather Roundup
Issued by NWS

Home | Current Version | Previous Version | Graphics & Text | Print | Product List | Glossary On
Versions: 1 2 3 4 5 6 7 8 9 10 11 12 13 14 15 16 17 18 19 20 21 22 23 24 25 26 27 28 29 30 31 32 33 34 35 36 37 38 39 40 41 42 43 44 45 46 47 48 49 50
633
ASUS43 KLOT 282209
RWRIL

ILLINOIS REGIONAL WEATHER ROUNDUP
NATIONAL WEATHER SERVICE CHICAGO/ROMEOVILLE IL
500 PM CDT SAT MAY 28 2016

NOTE: "FAIR" INDICATES FEW OR NO CLOUDS BELOW 12,000 FEET WITH NO
SIGNIFICANT WEATHER AND/OR OBSTRUCTIONS TO VISIBILITY.

* THESE STATIONS ARE NOT UNDER NWS QUALITY CONTROL. THEY ALSO MAY NOT
  REPORT WEATHER SUCH AS PRECIPITATION OR FOG.

ILZ001-002-007-009-015-016-024-282300-
NORTHWEST ILLINOIS

CITY           SKY/WX    TMP DP  RH WIND       PRES   REMARKS
MOLINE         LGT RAIN  71  66  84 W7        29.82R
STERLING*      MOSUNNY   83  63  50 S10G17    29.82F HX  84
SAVANNA*       MOSUNNY   82  62  52 S18G31    29.79S HX  82
$$

ILZ003-004-008-010-011-017-018-282300-
NORTH CENTRAL ILLINOIS

CITY           SKY/WX    TMP DP  RH WIND       PRES   REMARKS
ROCKFORD       MOSUNNY   84  61  45 S21G32    29.85F HX  84
FREEPORT*      SUNNY     81  60  48 S23G29    29.83F HX  82
ROCHELLE*      MOSUNNY   85  61  44 S23G30    29.85F HX  85
DE KALB*       MOSUNNY   81  65  58 S22       29.87F HX  83
$$

ILZ005-006-012>014-019>023-282300-
NORTHEAST ILLINOIS

CITY           SKY/WX    TMP DP  RH WIND       PRES   REMARKS
CHICAGO-OHARE  MOSUNNY   80  66  62 S15G26    29.88F HX  82
CHICAGO-MIDWAY MOSUNNY   83  65  54 S21       29.89F HX  85
AURORA         MOSUNNY   84  62  47 S20G26    29.87F HX  85
LANSING*       PTSUNNY   81  63  54 S17G23    29.92S HX  82
JOLIET*        MOSUNNY   84  66  53 S17       29.89S HX  86
WAUKEGAN       MOSUNNY   80  65  59 S20       29.87S HX  82
DUPAGE AIRPORT SUNNY     83  64  52 S18G26    29.87F HX  84
KANKAKEE*      MOSUNNY   83  65  55 S21       29.93S HX  84
WHEELING       MOSUNNY   82  63  52 S21       29.88F HX  83
MORRIS*        MOSUNNY   84  66  54 S21G26    29.86F HX  86
ROMEOVILLE*    MOSUNNY   84  59  42 S22G28    29.88F HX  84
NORTHERLY ISL    N/A     80  62  54 S18         N/A  HX  81
NORTHERLY ISL    N/A     80  62  54 S18         N/A  HX  81
$$

LMZ740>746-282300-
SOUTHERN LAKE MICHIGAN

STATION/POSITION SKY/WX   TEMP    WIND        PRES    VSBY  WAVE
                          AIR SEA DIR/SP/G                  HT/PER
                          (F)     (DEG/KT/KT) (MB)    (MI)  (FT/S)
SOUTHERN BUOY              58 50  160/ 10/ 12 1012.5F         1/ 4
WILMETTE HARBOR            62 54  170/ 10/ 12   N/A           2/ 3
HARRISON CRIB              76     190/ 22/ 23   N/A
BURNHAM HARBOR             80     200/ 17/ 18   N/A
CALUMET HARBOR             80     200/ 15/ 23 1012.2F
BURNS HARBOR               78     190/ 20     1013.9S
MICHIGAN CITY              78     180/ 15/ 19   N/A
MICHIGAN CITY 6N           72 57  200/ 12/ 17   N/A           2/ 3
ST. JOSEPH                 70 61  190/ 10/ 12   N/A           2/ 4
$$

ILZ025>027-034>036-040-047-049-050-058-095>099-282300-
WEST-CENTRAL ILLINOIS

CITY           SKY/WX    TMP DP  RH WIND       PRES   REMARKS
QUINCY         PTSUNNY   82  63  52 SW17G26   29.85F HX  83
GALESBURG*     PTSUNNY   78  65  62 S15G26    29.83S HX  80
MACOMB*        PTSUNNY   79  65  62 SW17      29.87R HX  81
JACKSONVILLE*  MOSUNNY   84  67  56 S13G21    29.88S HX  86
PITTSFIELD*    CLOUDY    82  67  61 S9G24     29.88S HX  84
$$

ILZ028>032-037-038-041>044-048-051>054-059>061-282300-
CENTRAL ILLINOIS

CITY           SKY/WX    TMP DP  RH WIND       PRES   REMARKS
PONTIAC        MOSUNNY   85  67  53 S22G29    29.90S HX  88
BLOOMINGTON    MOSUNNY   85  66  52 S24       29.91S HX  87
DECATUR        LGT RAIN  81  68  64 S16G22    29.94R HX  84
PEORIA         MOSUNNY   85  61  44 SW23G31   29.85S HX  85
LACON*         SUNNY     85  60  42 S17G26    29.85S HX  85
LINCOLN*       SUNNY     85  65  51 S12G23    29.89S HX  86
SPRINGFIELD    MOSUNNY   85  67  54 S21       29.89S HX  87
TAYLORVILLE    MOSUNNY   82  68  62 S18G24    29.92F HX  84
$$

ILZ033-039-045-046-055>057-062-063-282300-
EAST-CENTRAL ILLINOIS

CITY           SKY/WX    TMP DP  RH WIND       PRES   REMARKS
CHAMPAIGN      SUNNY     82  66  58 S22G30    29.95S HX  84
RANTOUL*       MOSUNNY   83  68  60 S21G31    29.94F HX  85
MATTOON        SUNNY     78  65  63 S13G22    29.96F HX  80
PARIS*         SUNNY     81  69  66 S13       29.98F HX  84
$$

ILZ079-100>102-282300-
SOUTHWEST ILLINOIS

CITY           SKY/WX    TMP DP  RH WIND       PRES   REMARKS
ALTON          PTSUNNY   81  68  65 S18       29.93R HX  83
BELLEVILLE     PTSUNNY   83  68  60 VRB6G18   29.93R HX  86
CAHOKIA*       MOSUNNY   83  65  54 S13G22    29.92S HX  85
SPARTA*        PTSUNNY   80  68  66 S15       29.98R HX  83
$$

ILZ064>066-069>071-074>076-080>082-084>086-088>090-092>094-282300-
SOUTH-CENTRAL ILLINOIS

CITY           SKY/WX    TMP DP  RH WIND       PRES   REMARKS
CARBONDALE     CLOUDY    80  65  59 S12       29.98F HX  82
CAIRO*         PTSUNNY   82  69  65 S8        30.00S HX  85
EFFINGHAM*     MOSUNNY   81  69  67 SE9       29.98S HX  84
MARION         PTSUNNY   79  66  65 S9        30.00  HX  81
MT. VERNON     MOSUNNY   81  66  61 SW13G18   29.99S HX  83
CENTRALIA*     CLOUDY    80  70  72 S9        29.97S HX  83
SALEM*         PTSUNNY   81  67  63 S15       29.97S HX  83
METROPOLIS*    PTSUNNY   84  71  65 S3        30.01F HX  88
$$

ILZ067-068-072-073-078-083-087-091-282300-
SOUTHEAST ILLINOIS

CITY           SKY/WX    TMP DP  RH WIND       PRES   REMARKS
LAWRENCEVILLE  PTSUNNY   83  65  54 S18       30.00S HX  85
FLORA*         CLOUDY    83  68  59 S15G22    29.98S HX  86
FAIRFIELD*     PTSUNNY   81  68  64 S9        29.98F HX  84
HARRISBURG*    CLOUDY    82  69  65 S12       30.00F HX  85
ROBINSON*      MOSUNNY   81  66  61 S15G22    30.00S HX  83
CARMI*         CLOUDY    80  69  70 S15       30.00S HX  82
$$

ABBREVIATIONS USED IN REMARKS
   TC - TEMPERATURE IN CELSIUS
  WCI - WIND CHILL INDEX
   HX - HEAT INDEX
  VSB - VISIBILITY
$$





USA.gov is the U.S. government's official web portal to all federal, state and local government web resources and services.